Time,TemperatureF,DewpointF,PressureIn,WindDirection,WindDirectionDegrees,WindSpeedMPH,WindSpeedGustMPH,Humidity,HourlyPrecipIn,Conditions,Clouds,dailyrainin,SoftwareType,DateUTC
2015-05-24 00:04:00,49.8,42.9,30.38,NW,324,0.0,0.0,77,0.00,,---,0.00,VWS V15.00,2015-05-24 04:04:00,
2015-05-24 00:09:00,49.6,42.7,30.38,NW,324,0.0,0.0,77,0.00,,---,0.00,VWS V15.00,2015-05-24 04:09:00,
2015-05-24 00:14:00,49.4,42.8,30.38,NW,324,0.0,0.0,78,0.00,,---,0.00,VWS V15.00,2015-05-24 04:14:00,
2015-05-24 00:24:00,49.0,42.8,30.37,NW,324,0.0,0.0,79,0.00,,---,0.00,VWS V15.00,2015-05-24 04:24:00,
2015-05-24 00:29:00,48.7,42.5,30.38,NW,324,0.0,1.0,79,0.00,,---,0.00,VWS V15.00,2015-05-24 04:29:00,
2015-05-24 00:34:00,48.5,42.6,30.38,NW,324,0.0,0.0,80,0.00,,---,0.00,VWS V15.00,2015-05-24 04:34:00,
2015-05-24 00:39:00,48.3,42.4,30.38,NW,324,0.0,0.0,80,0.00,,---,0.00,VWS V15.00,2015-05-24 04:39:00,
2015-05-24 00:44:00,48.2,42.3,30.37,NW,324,0.0,0.0,80,0.00,,---,0.00,VWS V15.00,2015-05-24 04:44:00,
2015-05-24 00:49:00,48.1,42.2,30.37,NW,324,0.0,0.0,80,0.00,,---,0.00,VWS V15.00,2015-05-24 04:49:00,
2015-05-24 00:54:00,47.9,42.0,30.37,NW,324,0.0,0.0,80,0.00,,---,0.00,VWS V15.00,2015-05-24 04:54:00,
2015-05-24 00:59:00,47.7,42.2,30.37,NW,324,0.0,1.0,81,0.00,,---,0.00,VWS V15.00,2015-05-24 04:59:00,
2015-05-24 01:04:00,47.4,42.2,30.37,NW,324,0.0,0.0,82,0.00,,---,0.00,VWS V15.00,2015-05-24 05:04:00,
2015-05-24 01:09:00,47.2,42.0,30.37,NW,324,0.0,0.0,82,0.00,,---,0.00,VWS V15.00,2015-05-24 05:09:00,
2015-05-24 01:14:00,47.1,41.9,30.37,NW,324,0.0,0.0,82,0.00,,---,0.00,VWS V15.00,2015-05-24 05:14:00,
2015-05-24 01:19:00,46.9,42.0,30.37,NW,324,0.0,0.0,83,0.00,,---,0.00,VWS V15.00,2015-05-24 05:19:00,
2015-05-24 01:24:00,46.7,41.8,30.37,NW,324,0.0,0.0,83,0.00,,---,0.00,VWS V15.00,2015-05-24 05:24:00,
2015-05-24 01:29:00,46.4,41.8,30.37,NW,324,0.0,0.0,84,0.00,,---,0.00,VWS V15.00,2015-05-24 05:29:00,
2015-05-24 01:34:00,46.3,41.7,30.37,NW,324,0.0,0.0,84,0.00,,---,0.00,VWS V15.00,2015-05-24 05:34:00,
2015-05-24 01:39:00,46.1,41.5,30.37,NW,324,0.0,0.0,84,0.00,,---,0.00,VWS V15.00,2015-05-24 05:39:00,
2015-05-24 01:44:00,46.0,41.4,30.37,NW,324,0.0,0.0,84,0.00,,---,0.00,VWS V15.00,2015-05-24 05:44:00,
2015-05-24 01:49:00,45.8,41.5,30.37,NW,324,0.0,0.0,85,0.00,,---,0.00,VWS V15.00,2015-05-24 05:49:00,
2015-05-24 01:54:00,45.6,41.4,30.37,NW,324,0.0,0.0,85,0.00,,---,0.00,VWS V15.00,2015-05-24 05:54:00,
2015-05-24 01:59:00,45.5,41.3,30.37,NW,324,0.0,0.0,85,0.00,,---,0.00,VWS V15.00,2015-05-24 05:59:00,
2015-05-24 02:04:00,45.4,41.5,30.38,NW,324,0.0,0.0,86,0.00,,---,0.00,VWS V15.00,2015-05-24 06:04:00,
2015-05-24 02:09:00,45.3,41.4,30.37,NW,324,0.0,1.0,86,0.00,,---,0.00,VWS V15.00,2015-05-24 06:09:00,
2015-05-24 02:14:00,45.2,41.3,30.37,NW,324,0.0,0.0,86,0.00,,---,0.00,VWS V15.00,2015-05-24 06:14:00,
2015-05-24 02:19:00,45.2,41.3,30.37,NW,324,0.0,0.0,86,0.00,,---,0.00,VWS V15.00,2015-05-24 06:19:00,
2015-05-24 02:24:00,45.1,41.5,30.37,NW,324,0.0,0.0,87,0.00,,---,0.00,VWS V15.00,2015-05-24 06:24:00,
2015-05-24 02:29:00,44.9,41.3,30.37,NW,324,0.0,0.0,87,0.00,,---,0.00,VWS V15.00,2015-05-24 06:29:00,
2015-05-24 02:34:00,44.8,41.2,30.37,NW,324,0.0,1.0,87,0.00,,---,0.00,VWS V15.00,2015-05-24 06:34:00,
2015-05-24 02:39:00,44.6,41.0,30.37,NW,324,0.0,1.0,87,0.00,,---,0.00,VWS V15.00,2015-05-24 06:39:00,
2015-05-24 02:44:00,44.5,41.2,30.37,NW,324,0.0,0.0,88,0.00,,---,0.00,VWS V15.00,2015-05-24 06:44:00,
2015-05-24 02:49:00,44.3,41.0,30.37,NW,324,0.0,0.0,88,0.00,,---,0.00,VWS V15.00,2015-05-24 06:49:00,
2015-05-24 02:54:00,44.2,40.9,30.37,NW,324,0.0,0.0,88,0.00,,---,0.00,VWS V15.00,2015-05-24 06:54:00,
2015-05-24 02:59:00,44.1,41.1,30.37,NW,324,0.0,0.0,89,0.00,,---,0.00,VWS V15.00,2015-05-24 06:59:00,
2015-05-24 03:04:00,44.0,41.0,30.37,NW,324,0.0,0.0,89,0.00,,---,0.00,VWS V15.00,2015-05-24 07:04:00,
2015-05-24 03:09:00,43.8,40.8,30.37,NW,324,0.0,0.0,89,0.00,,---,0.00,VWS V15.00,2015-05-24 07:09:00,
2015-05-24 03:14:00,43.7,40.7,30.38,NW,324,0.0,0.0,89,0.00,,---,0.00,VWS V15.00,2015-05-24 07:14:00,
2015-05-24 03:19:00,43.5,40.5,30.38,NW,324,0.0,0.0,89,0.00,,---,0.00,VWS V15.00,2015-05-24 07:19:00,
2015-05-24 03:24:00,43.4,40.7,30.38,NW,324,0.0,0.0,90,0.00,,---,0.00,VWS V15.00,2015-05-24 07:24:00,
2015-05-24 03:29:00,43.3,40.6,30.38,NW,324,0.0,0.0,90,0.00,,---,0.00,VWS V15.00,2015-05-24 07:29:00,